Location: Newark
(25.4297°S, 49.2719°W)
Time: 02:52:09
(UTC+00:00)

Hubble Space Telescope - Pass Details

Date: 26 June 2021
Orbit: 535 x 539 km, 28.5° (Epoch: 28 July)

Event Time Altitude Azimuth Distance (km) Brightness Sun altitude
Rises 22:06:58 0° 339° (NNW) 2,658 4.9 -19.8°
Reaches altitude 10° 22:11:35 10° 26° (NNE) 1,777 3.3 -20.8°
Enters shadow 22:11:40 10° 27° (NNE) 1,776 3.3 -20.8°
